Glendive, MT

1:38 PM MDT on May 22, 2018 (GMT -0600)
Dawson Community

Weather History for KGDV - February, 2014

Change the Weather History Date:

Saturday, February 8, 2014

  Actual Average Record
Temperature  
Mean Temperature 0 °F 22 °F  
Max Temperature 8 °F 33 °F 59 °F (2000)
Min Temperature -9 °F 12 °F -24 °F (1994)
Degree Days  
Heating Degree Days 66 43  
Month to date heating degree days 1149  
Year to date heating degree days 2581  
Since 1 July heating degree days 5569  
Cooling Degree Days 0 0  
Month to date cooling degree days 0  
Year to date cooling degree days 0  
Since 1 July cooling degree days 0  
Moisture  
Dew Point -4 °F    
Average Humidity 75    
Maximum Humidity 100    
Minimum Humidity 56    
Precipitation  
Precipitation 0.00 in 0.01 in 0.02 in (2015)
Month to date precipitation 0.26  
Year to date precipitation 0.62  
Sea Level Pressure  
Sea Level Pressure 30.11 in    
Wind  
Wind Speed 6 mph (NW)    
Max Wind Speed 16 mph    
Max Gust Speed 20 mph    
Visibility 10 miles    
Events      
T = Trace of Precipitation, MM = Missing Value Source: NWS Daily Summary

Daily Weather History Graph

Daily Weather History Graph

Search for Another Location

Airport or City:

Astronomy

Feb. 08, 2014 Rise Set
Actual Time 7:14 AM MST 5:12 PM MST
Civil Twilight 6:42 AM MST 5:44 PM MST
Nautical Twilight 6:06 AM MST 6:20 PM MST
Astronomical Twilight 5:31 AM MST 6:56 PM MST
Moon 12:02 PM MST (2/8) 2:35 AM MST (2/8)
Length of Visible Light 11h 01m
Length of Day
9h 57m
Waxing Gibbous, 69% of the Moon is Illuminated
Feb 8
Waxing Gibbous
Feb 14
Full
Feb 22
Last Quarter
Mar 1
New
Mar 8
First Quarter

Hourly Weather History & Observations

Time (MST) Temp. Windchill Dew Point Humidity Pressure Visibility Wind Dir Wind Speed Gust Speed Precip Events Conditions
12:15 AM 3.2 °F - -0.4 °F 85% 29.90 in 10.0 mi Calm Calm - N/A   Mostly Cloudy
12:55 AM 1.4 °F - -7.6 °F 66% 29.90 in 10.0 mi Calm Calm - N/A   Clear
1:15 AM 1.4 °F -6.2 °F -4.0 °F 78% 29.91 in 10.0 mi WSW 3.5 mph - N/A   Clear
1:35 AM -0.4 °F -10.4 °F -5.8 °F 78% 29.91 in 10.0 mi West 4.6 mph - N/A   Clear
1:55 AM -0.4 °F -10.4 °F -5.8 °F 78% 29.91 in 10.0 mi NNW 4.6 mph - N/A   Clear
2:15 AM -0.4 °F - -7.6 °F 72% 29.91 in 10.0 mi Calm Calm - N/A   Clear
2:35 AM -2.2 °F - -9.4 °F 71% 29.92 in 10.0 mi Calm Calm - N/A   Scattered Clouds
2:55 AM -2.2 °F - -2.2 °F 100% 29.93 in 10.0 mi Calm Calm - N/A   Overcast
3:15 AM -2.2 °F - -4.0 °F 92% 29.93 in 10.0 mi Calm Calm - N/A   Overcast
3:35 AM -0.4 °F -12.0 °F -0.4 °F 100% 29.93 in 10.0 mi NNW 5.8 mph - N/A   Overcast
3:55 AM 1.4 °F -8.3 °F -2.2 °F 85% 29.93 in 10.0 mi NNW 4.6 mph - N/A   Overcast
4:15 AM 1.4 °F - -4.0 °F 78% 29.93 in 10.0 mi Calm Calm - N/A   Overcast
4:35 AM 1.4 °F - -2.2 °F 85% 29.93 in 10.0 mi Calm Calm - N/A   Overcast
4:55 AM 1.4 °F - -4.0 °F 78% 29.93 in 10.0 mi Calm Calm - N/A   Mostly Cloudy
5:15 AM 1.4 °F - -0.4 °F 92% 29.94 in 10.0 mi Calm Calm - N/A   Mostly Cloudy
5:35 AM 1.4 °F -6.2 °F -5.8 °F 72% 29.95 in 10.0 mi South 3.5 mph - N/A   Overcast
5:55 AM 1.4 °F -8.3 °F -0.4 °F 92% 29.96 in 10.0 mi South 4.6 mph - N/A   Mostly Cloudy
6:35 AM 3.2 °F - 1.4 °F 92% 29.97 in 5.0 mi Calm Calm - N/A   Partly Cloudy
6:55 AM 3.2 °F -7.8 °F 3.2 °F 100% 29.98 in 10.0 mi North 5.8 mph - N/A   Mostly Cloudy
7:15 AM 5.0 °F -5.6 °F -2.2 °F 72% 29.99 in 10.0 mi NW 5.8 mph - N/A   Overcast
7:35 AM 3.2 °F -10.3 °F -0.4 °F 85% 30.00 in 10.0 mi NW 8.1 mph - N/A   Mostly Cloudy
7:55 AM 3.2 °F -11.3 °F -0.4 °F 85% 30.01 in 10.0 mi NW 9.2 mph - N/A   Overcast
8:15 AM 3.2 °F -12.2 °F -5.8 °F 66% 30.02 in 10.0 mi NW 10.4 mph - N/A   Overcast
8:35 AM 3.2 °F -12.2 °F -4.0 °F 72% 30.03 in 10.0 mi NW 10.4 mph - N/A   Overcast
8:55 AM 3.2 °F -13.9 °F -2.2 °F 78% 30.04 in 10.0 mi NW 12.7 mph - N/A   Overcast
9:15 AM 3.2 °F -12.2 °F -4.0 °F 72% 30.06 in 10.0 mi WNW 10.4 mph - N/A   Scattered Clouds
9:35 AM 3.2 °F -12.2 °F -4.0 °F 72% 30.07 in 10.0 mi NW 10.4 mph - N/A   Scattered Clouds
9:55 AM 3.2 °F -11.3 °F -4.0 °F 72% 30.08 in 10.0 mi WNW 9.2 mph - N/A   Scattered Clouds
10:15 AM 5.0 °F -10.8 °F -2.2 °F 72% 30.09 in 10.0 mi NW 11.5 mph - N/A   Clear
10:35 AM 6.8 °F -6.9 °F -0.4 °F 72% 30.10 in 10.0 mi NW 9.2 mph - N/A   Clear
10:55 AM 6.8 °F -7.8 °F -2.2 °F 67% 30.10 in 10.0 mi NNW 10.4 mph - N/A   Clear
11:15 AM 6.8 °F -7.8 °F -0.4 °F 72% 30.11 in 10.0 mi NW 10.4 mph - N/A   Clear
11:35 AM 8.6 °F -5.5 °F -0.4 °F 67% 30.11 in 10.0 mi NW 10.4 mph - N/A   Scattered Clouds
11:55 AM 8.6 °F -5.5 °F -0.4 °F 67% 30.12 in 10.0 mi NNW 10.4 mph - N/A   Scattered Clouds
12:15 PM 8.6 °F -5.5 °F -0.4 °F 67% 30.13 in 10.0 mi NW 10.4 mph - N/A   Clear
12:35 PM 8.6 °F -7.7 °F -0.4 °F 67% 30.13 in 10.0 mi NNW 13.8 mph - N/A   Mostly Cloudy
12:55 PM 8.6 °F -8.9 °F -0.4 °F 67% 30.14 in 10.0 mi NW 16.1 mph - N/A   Mostly Cloudy
1:15 PM 8.6 °F -7.7 °F -2.2 °F 62% 30.14 in 10.0 mi NW 13.8 mph - N/A   Partly Cloudy
1:35 PM 6.8 °F -10.0 °F -5.8 °F 56% 30.15 in 10.0 mi NW 13.8 mph - N/A   Clear
1:55 PM 6.8 °F -10.7 °F -2.2 °F 67% 30.15 in 10.0 mi NW 15.0 mph - N/A   Clear
2:15 PM 6.8 °F -9.3 °F -5.8 °F 56% 30.16 in 10.0 mi NW 12.7 mph 19.6 mph N/A   Clear
2:35 PM 8.6 °F -7.0 °F -4.0 °F 57% 30.16 in 10.0 mi WNW 12.7 mph - N/A   Clear
2:55 PM 6.8 °F -10.7 °F -4.0 °F 61% 30.17 in 10.0 mi WNW 15.0 mph - N/A   Clear
3:15 PM 6.8 °F -10.0 °F -4.0 °F 61% 30.19 in 10.0 mi NW 13.8 mph - N/A   Clear
3:35 PM 6.8 °F -9.3 °F -5.8 °F 56% 30.20 in 10.0 mi NW 12.7 mph - N/A   Clear
3:55 PM 6.8 °F -7.8 °F -2.2 °F 67% 30.20 in 10.0 mi WNW 10.4 mph - N/A   Clear
4:15 PM 6.8 °F -9.3 °F -4.0 °F 61% 30.21 in 10.0 mi WNW 12.7 mph - N/A   Clear
4:35 PM 6.8 °F -7.8 °F -2.2 °F 67% 30.22 in 10.0 mi WNW 10.4 mph - N/A   Clear
4:55 PM 6.8 °F -6.9 °F -4.0 °F 61% 30.23 in 10.0 mi WNW 9.2 mph - N/A   Partly Cloudy
5:15 PM 6.8 °F -7.8 °F -2.2 °F 67% 30.24 in 10.0 mi WNW 10.4 mph - N/A   Mostly Cloudy
5:35 PM 3.2 °F -9.1 °F -4.0 °F 72% 30.25 in 10.0 mi WNW 6.9 mph - N/A   Mostly Cloudy
5:55 PM 1.4 °F -8.3 °F -5.8 °F 72% 30.26 in 10.0 mi WNW 4.6 mph - N/A   Mostly Cloudy
6:15 PM 1.4 °F -8.3 °F -4.0 °F 78% 30.27 in 10.0 mi WNW 4.6 mph - N/A   Scattered Clouds
6:55 PM -2.2 °F -14.2 °F -7.6 °F 78% 30.28 in 10.0 mi West 5.8 mph - N/A   Clear
7:15 PM -2.2 °F -16.8 °F -7.6 °F 78% 30.28 in 10.0 mi WNW 8.1 mph - N/A   Clear
7:35 PM 1.4 °F -12.5 °F -0.4 °F 92% 30.29 in 10.0 mi WNW 8.1 mph - N/A   Clear
7:55 PM -0.4 °F -14.7 °F -7.6 °F 72% 30.29 in 10.0 mi NW 8.1 mph - N/A   Partly Cloudy
8:15 PM -0.4 °F -14.7 °F -7.6 °F 72% 30.29 in 10.0 mi NNW 8.1 mph - N/A   Scattered Clouds
8:35 PM -2.2 °F -18.9 °F -5.8 °F 85% 30.29 in 10.0 mi NW 10.4 mph - N/A   Clear
8:55 PM -2.2 °F -18.9 °F -7.6 °F 78% 30.30 in 10.0 mi NW 10.4 mph - N/A   Partly Cloudy
9:15 PM -2.2 °F -18.0 °F -5.8 °F 85% 30.30 in 10.0 mi NW 9.2 mph - N/A   Partly Cloudy
9:35 PM -4.0 °F -20.2 °F -9.4 °F 78% 30.30 in 10.0 mi NW 9.2 mph - N/A   Clear
9:55 PM -5.8 °F -21.2 °F -9.4 °F 84% 30.31 in 10.0 mi NW 8.1 mph - N/A   Clear
10:15 PM -5.8 °F -22.4 °F -9.4 °F 84% 30.31 in 10.0 mi NW 9.2 mph - N/A   Clear
10:35 PM -5.8 °F -19.9 °F -9.4 °F 84% 30.31 in 10.0 mi NW 6.9 mph - N/A   Clear
10:55 PM -9.4 °F -22.7 °F -14.8 °F 77% 30.32 in 10.0 mi NW 5.8 mph - N/A   Clear
11:35 PM -9.4 °F -25.6 °F -9.4 °F 100% 30.33 in 10.0 mi WNW 8.1 mph - N/A   Clear
11:55 PM -9.4 °F -24.3 °F -18.4 °F 65% 30.33 in 10.0 mi NW 6.9 mph - N/A   Clear